TimeICT,TemperatureF,Dew PointF,Humidity,Sea Level PressureIn,VisibilityMPH,Wind Direction,Wind SpeedMPH,Gust SpeedMPH,PrecipitationIn,Events,Conditions,WindDirDegrees,DateUTC
12:00 AM,75.2,75.2,100,29.86,3.7,NW,2.3,-,N/A,,Scattered Clouds,320,2012-11-26 17:00:00
1:00 AM,76,74,94,29.83,4,Calm,Calm,,,,Mist,,2012-11-26 18:00:00
3:00 AM,75.2,75.2,100,29.77,3.7,WNW,4.6,-,N/A,,Mostly Cloudy,300,2012-11-26 20:00:00
4:00 AM,75.2,75.2,100,29.77,3.7,SW,2.3,-,N/A,,Mostly Cloudy,230,2012-11-26 21:00:00
6:00 AM,75.2,75.2,100,29.80,3.7,Calm,Calm,-,N/A,,Overcast,0,2012-11-26 23:00:00
7:00 AM,75,74,95,29.81,5,Calm,Calm,,,,Mist,,2012-11-27 00:00:00
7:00 AM,75.2,75.2,100,29.80,4.3,Calm,Calm,-,N/A,,Mostly Cloudy,0,2012-11-27 00:00:00
8:00 AM,77.0,77.0,100,29.83,3.7,Calm,Calm,-,N/A,,Mostly Cloudy,0,2012-11-27 01:00:00
9:00 AM,78.8,77.0,94,29.86,5.0,NE,5.8,-,N/A,,Mostly Cloudy,50,2012-11-27 02:00:00
10:00 AM,80.6,78.8,94,29.86,3.7,ENE,5.8,-,N/A,,Mostly Cloudy,70,2012-11-27 03:00:00
11:00 AM,80.6,78.8,94,29.86,4.3,NE,9.2,-,N/A,,Overcast,40,2012-11-27 04:00:00
12:00 PM,82.4,77.0,84,29.83,5.0,NE,9.2,-,N/A,,Overcast,50,2012-11-27 05:00:00
1:00 PM,82,76,77,29.82,6,ENE,3.5,,,,Overcast,60,2012-11-27 06:00:00
1:00 PM,82.4,77.0,84,29.80,5.0,ENE,9.2,-,N/A,,Mostly Cloudy,60,2012-11-27 06:00:00
2:00 PM,82.4,77.0,84,29.77,6.2,NE,10.4,-,N/A,,Mostly Cloudy,40,2012-11-27 07:00:00
3:00 PM,80.6,77.0,89,29.77,6.2,NE,10.4,-,N/A,,Mostly Cloudy,40,2012-11-27 08:00:00
4:00 PM,82.4,77.0,84,29.74,6.2,NE,10.4,-,N/A,,Overcast,50,2012-11-27 09:00:00
5:00 PM,80.6,77.0,89,29.74,6.2,NE,9.2,-,N/A,,Mostly Cloudy,40,2012-11-27 10:00:00
6:00 PM,80.6,77.0,89,29.77,6.2,North,4.6,-,N/A,,Overcast,360,2012-11-27 11:00:00
7:00 PM,79,75,83,29.78,5,Calm,Calm,,,,Mist,,2012-11-27 12:00:00
7:00 PM,78.8,77.0,94,29.77,6.2,NNE,5.8,-,N/A,,Overcast,20,2012-11-27 12:00:00
8:00 PM,77.0,77.0,100,29.80,5.0,ENE,4.6,-,N/A,,Overcast,60,2012-11-27 13:00:00
9:00 PM,77.0,77.0,100,29.83,5.0,NE,4.6,-,N/A,,Overcast,50,2012-11-27 14:00:00